Location: ?????
(31.8092°N, 35.2590°E)
Time: 19:57:23
(UTC+00:00)

Okean 2 - Pass Details

Date: 20 June 2021
Orbit: 560 x 575 km, 82.5° (Epoch: 31 July)

Event Time Altitude Azimuth Distance (km) Brightness Sun altitude
Rises 17:28:01 0° 182° (S) 2,743 6.6 -8.2°
Reaches altitude 10° 17:30:11 10° 182° (S) 1,849 5.7 -8.6°
Maximum altitude 17:34:15 80° 96° (E) 575 3.3 -9.3°
Drops below altitude 10° 17:38:20 10° 9° (N) 1,854 6.4 -10.0°
Sets 17:40:31 0° 8° (N) 2,753 7.3 -10.4°
